| time (UTC) | temp F | wind direction | speed knots | gust knots | rain 1hr in | rain 24hr in | rain mn in | humidity % | barometer mb |
| 20260509004314 | 73 | 302 | 1.7 | 9.6 | 0.00 | 0.00 | 0.00 | 30 | 1004.8 |
| 20260509003815 | 74 | 301 | 2.6 | 9.6 | 0.00 | 0.00 | 0.00 | 29 | 1004.8 |
| 20260509003314 | 74 | 15 | 2.6 | 7.8 | 0.00 | 0.00 | 0.00 | 29 | 1004.8 |
| 20260509002313 | 75 | 277 | 3.5 | 9.6 | 0.00 | 0.00 | 0.00 | 30 | 1004.7 |
| 20260509001813 | 75 | 272 | 2.6 | 9.6 | 0.00 | 0.00 | 0.00 | 30 | 1004.7 |
| 20260509000812 | 75 | 13 | 2.6 | 6.1 | 0.00 | 0.00 | 0.00 | 34 | 1004.7 |
| 20260509000311 | 75 | 289 | 2.6 | 8.7 | 0.00 | 0.00 | 0.00 | 34 | 1004.6 |
| 20260508235812 | 74 | 282 | 2.6 | 8.7 | 0.00 | 0.00 | 0.00 | 34 | 1004.8 |
| 20260508235313 | 74 | 286 | 1.7 | 6.1 | 0.00 | 0.00 | 0.00 | 38 | 1004.8 |
| 20260508234811 | 74 | 277 | 3.5 | 7.0 | 0.00 | 0.00 | 0.00 | 35 | 1004.7 |
| 20260508234311 | 73 | 304 | 2.6 | 8.7 | 0.00 | 0.00 | 0.00 | 36 | 1004.8 |
| 20260508233311 | 73 | 243 | 3.5 | 7.0 | 0.00 | 0.00 | 0.00 | 35 | 1004.8 |
| 20260508232810 | 73 | 271 | 2.6 | 5.2 | 0.00 | 0.00 | 0.00 | 38 | 1004.8 |
| 20260508232310 | 73 | 255 | 1.7 | 4.3 | 0.00 | 0.00 | 0.00 | 36 | 1004.8 |
| 20260508231809 | 73 | 254 | 1.7 | 6.1 | 0.00 | 0.00 | 0.00 | 35 | 1004.8 |
| 20260508231309 | 73 | 279 | 1.7 | 6.1 | 0.00 | 0.00 | 0.00 | 36 | 1004.8 |
| 20260508230809 | 73 | 236 | 1.7 | 3.5 | 0.00 | 0.00 | 0.00 | 33 | 1004.9 |
| 20260508230309 | 73 | 178 | 0.9 | 3.5 | 0.00 | 0.00 | 0.00 | 34 | 1004.9 |
| 20260508225808 | 74 | 275 | 1.7 | 5.2 | 0.00 | 0.00 | 0.00 | 34 | 1004.9 |
| 20260508224808 | 74 | 286 | 1.7 | 7.0 | 0.00 | 0.00 | 0.00 | 34 | 1004.9 |
| 20260508224307 | 74 | 254 | 3.5 | 11.3 | 0.00 | 0.00 | 0.00 | 32 | 1004.9 |
| 20260508222306 | 76 | 344 | 0.9 | 4.3 | 0.00 | 0.00 | 0.00 | 35 | 1005.0 |
| 20260508221305 | 76 | 334 | 1.7 | 7.0 | 0.00 | 0.00 | 0.00 | 38 | 1005.2 |
| 20260508220805 | 76 | 225 | 2.6 | 7.8 | 0.00 | 0.00 | 0.00 | 30 | 1005.2 |
| 20260508220305 | 76 | 226 | 3.5 | 9.6 | 0.00 | 0.00 | 0.00 | 28 | 1005.2 |
| 20260508215306 | 77 | 242 | 3.5 | 13.0 | 0.00 | 0.00 | 0.00 | 29 | 1005.1 |
| 20260508214804 | 78 | 223 | 5.2 | 10.4 | 0.00 | 0.00 | 0.00 | 28 | 1005.2 |
| 20260508213805 | 76 | 225 | 2.6 | 9.6 | 0.00 | 0.00 | 0.00 | 27 | 1005.3 |
| 20260508213303 | 76 | 259 | 4.3 | 9.6 | 0.00 | 0.00 | 0.00 | 32 | 1005.4 |
| 20260508212803 | 76 | 234 | 4.3 | 10.4 | 0.00 | 0.00 | 0.00 | 29 | 1005.4 |
| 20260508212306 | 78 | 217 | 5.2 | 10.4 | 0.00 | 0.00 | 0.00 | 28 | 1005.4 |
| 20260508211802 | 78 | 246 | 4.3 | 10.4 | 0.00 | 0.00 | 0.00 | 31 | 1005.5 |
| 20260508211302 | 78 | 298 | 7.0 | 10.4 | 0.00 | 0.00 | 0.00 | 28 | 1005.5 |
| 20260508210801 | 78 | 249 | 5.2 | 12.2 | 0.00 | 0.00 | 0.00 | 31 | 1005.6 |
| 20260508210301 | 79 | 232 | 4.3 | 12.2 | 0.00 | 0.00 | 0.00 | 28 | 1005.8 |
| 20260508205801 | 78 | 234 | 6.1 | 10.4 | 0.00 | 0.00 | 0.00 | 29 | 1005.8 |
| 20260508205301 | 77 | 221 | 7.0 | 10.4 | 0.00 | 0.00 | 0.00 | 31 | 1005.8 |
| 20260508204800 | 76 | 244 | 3.5 | 10.4 | 0.00 | 0.00 | 0.00 | 30 | 1005.9 |
| 20260508204300 | 76 | 240 | 7.0 | 10.4 | 0.00 | 0.00 | 0.00 | 28 | 1006.0 |
| 20260508203802 | 77 | 275 | 3.5 | 11.3 | 0.00 | 0.00 | 0.00 | 29 | 1006.1 |
| 20260508203259 | 77 | 314 | 5.2 | 11.3 | 0.00 | 0.00 | 0.00 | 32 | 1006.2 |
| 20260508201758 | 76 | 223 | 6.1 | 13.0 | 0.00 | 0.00 | 0.00 | 31 | 1006.2 |
| 20260508201256 | 76 | 234 | 2.6 | 13.0 | 0.00 | 0.00 | 0.00 | 37 | 1006.4 |
| 20260508200756 | 75 | 26 | 3.5 | 7.8 | 0.00 | 0.00 | 0.00 | 31 | 1006.4 |
| 20260508200257 | 75 | 183 | 1.7 | 7.8 | 0.00 | 0.00 | 0.00 | 31 | 1006.5 |
| 20260508195756 | 76 | 207 | 4.3 | 10.4 | 0.00 | 0.00 | 0.00 | 30 | 1006.6 |
| 20260508194755 | 76 | 277 | 3.5 | 12.2 | 0.00 | 0.00 | 0.00 | 28 | 1006.7 |
| 20260508194254 | 76 | 248 | 3.5 | 11.3 | 0.00 | 0.00 | 0.00 | 34 | 1006.8 |
| 20260508193252 | 76 | 178 | 3.5 | 7.8 | 0.00 | 0.00 | 0.00 | 27 | 1006.9 |
| 20260508192252 | 76 | 113 | 2.6 | 13.0 | 0.00 | 0.00 | 0.00 | 25 | 1006.9 |
| 20260508191751 | 77 | 171 | 5.2 | 9.6 | 0.00 | 0.00 | 0.00 | 29 | 1006.8 |
| 20260508191251 | 77 | 254 | 2.6 | 7.8 | 0.00 | 0.00 | 0.00 | 32 | 1006.9 |
| 20260508190251 | 75 | 229 | 2.6 | 6.1 | 0.00 | 0.00 | 0.00 | 31 | 1007.2 |
| 20260508185751 | 75 | 184 | 1.7 | 8.7 | 0.00 | 0.00 | 0.00 | 30 | 1007.2 |
| 20260508185250 | 75 | 209 | 5.2 | 8.7 | 0.00 | 0.00 | 0.00 | 27 | 1007.2 |
| 20260508184250 | 76 | 205 | 5.2 | 10.4 | 0.00 | 0.00 | 0.00 | 31 | 1007.3 |
| 20260508183249 | 76 | 218 | 2.6 | 9.6 | 0.00 | 0.00 | 0.00 | 32 | 1007.3 |
| 20260508182749 | 75 | 261 | 3.5 | 9.6 | 0.00 | 0.00 | 0.00 | 41 | 1007.5 |
| 20260508182249 | 75 | 198 | 3.5 | 7.8 | 0.00 | 0.00 | 0.00 | 32 | 1007.5 |
| 20260508181749 | 74 | 93 | 1.7 | 9.6 | 0.00 | 0.00 | 0.00 | 31 | 1007.5 |
| 20260508181248 | 74 | 214 | 5.2 | 9.6 | 0.00 | 0.00 | 0.00 | 32 | 1007.6 |
| 20260508180748 | 74 | 221 | 4.3 | 8.7 | 0.00 | 0.00 | 0.00 | 33 | 1007.6 |
| 20260508180248 | 74 | 34 | 4.3 | 8.7 | 0.00 | 0.00 | 0.00 | 32 | 1007.6 |
| 20260508175748 | 74 | 194 | 3.5 | 7.0 | 0.00 | 0.00 | 0.00 | 32 | 1007.7 |
| 20260508174748 | 74 | 182 | 3.5 | 8.7 | 0.00 | 0.00 | 0.00 | 33 | 1007.7 |
| 20260508174247 | 74 | 269 | 5.2 | 8.7 | 0.00 | 0.00 | 0.00 | 33 | 1007.8 |
| 20260508173748 | 74 | 175 | 3.5 | 7.8 | 0.00 | 0.00 | 0.00 | 34 | 1007.8 |
| 20260508173247 | 74 | 221 | 4.3 | 8.7 | 0.00 | 0.00 | 0.00 | 32 | 1007.9 |
| 20260508172247 | 73 | 51 | 3.5 | 8.7 | 0.00 | 0.00 | 0.00 | 32 | 1008.0 |
| 20260508171746 | 73 | 211 | 3.5 | 8.7 | 0.00 | 0.00 | 0.00 | 36 | 1008.1 |
| 20260508171245 | 72 | 93 | 3.5 | 8.7 | 0.00 | 0.00 | 0.00 | 35 | 1008.1 |
| 20260508170745 | 73 | 203 | 3.5 | 8.7 | 0.00 | 0.00 | 0.00 | 37 | 1008.1 |
| 20260508165745 | 72 | 173 | 2.6 | 5.2 | 0.00 | 0.00 | 0.00 | 36 | 1008.3 |
| 20260508165245 | 71 | 140 | 1.7 | 4.3 | 0.00 | 0.00 | 0.00 | 34 | 1008.4 |
| 20260508164744 | 70 | 221 | 1.7 | 5.2 | 0.00 | 0.00 | 0.00 | 32 | 1008.3 |
| 20260508164244 | 70 | 214 | 2.6 | 5.2 | 0.00 | 0.00 | 0.00 | 31 | 1008.3 |
| 20260508163746 | 71 | 229 | 1.7 | 4.3 | 0.00 | 0.00 | 0.00 | 32 | 1008.4 |
| 20260508163243 | 71 | 208 | 1.7 | 4.3 | 0.00 | 0.00 | 0.00 | 32 | 1008.4 |
| 20260508162743 | 71 | 110 | 0.9 | 3.5 | 0.00 | 0.00 | 0.00 | 34 | 1008.4 |
| 20260508162243 | 71 | 200 | 1.7 | 3.5 | 0.00 | 0.00 | 0.00 | 34 | 1008.4 |
| 20260508161743 | 71 | 280 | 0.9 | 3.5 | 0.00 | 0.00 | 0.00 | 34 | 1008.6 |
| 20260508161242 | 71 | 24 | 1.7 | 4.3 | 0.00 | 0.00 | 0.00 | 32 | 1008.4 |
| 20260508160742 | 71 | 139 | 1.7 | 4.3 | 0.00 | 0.00 | 0.00 | 33 | 1008.5 |
| 20260508160241 | 71 | 171 | 1.7 | 4.3 | 0.00 | 0.00 | 0.00 | 33 | 1008.5 |
| 20260508155739 | 71 | 150 | 1.7 | 6.1 | 0.00 | 0.00 | 0.00 | 34 | 1008.7 |
| 20260508155239 | 71 | 93 | 2.6 | 6.1 | 0.00 | 0.00 | 0.00 | 39 | 1008.4 |
| 20260508154234 | 71 | 200 | 2.6 | 4.3 | 0.00 | 0.00 | 0.00 | 36 | 1008.5 |
| 20260508153233 | 70 | 137 | 0.9 | 2.6 | 0.00 | 0.00 | 0.00 | 40 | 1008.6 |
| 20260508152733 | 69 | 249 | 0.9 | 3.5 | 0.00 | 0.00 | 0.00 | 41 | 1008.6 |
| 20260508152233 | 69 | 219 | 0.9 | 4.3 | 0.00 | 0.00 | 0.00 | 38 | 1008.7 |
| 20260508151732 | 68 | 128 | 1.7 | 4.3 | 0.00 | 0.00 | 0.00 | 41 | 1008.7 |
| 20260508151231 | 67 | 243 | 1.7 | 4.3 | 0.00 | 0.00 | 0.00 | 40 | 1008.7 |
| 20260508150731 | 67 | 167 | 2.6 | 4.3 | 0.00 | 0.00 | 0.00 | 41 | 1008.8 |
| 20260508150231 | 66 | 137 | 1.7 | 4.3 | 0.00 | 0.00 | 0.00 | 46 | 1008.9 |
| 20260508145731 | 65 | 163 | 1.7 | 4.3 | 0.00 | 0.00 | 0.00 | 48 | 1009.0 |
| 20260508145229 | 65 | 198 | 1.7 | 5.2 | 0.00 | 0.00 | 0.00 | 47 | 1008.9 |
| 20260508144731 | 64 | 132 | 2.6 | 5.2 | 0.00 | 0.00 | 0.00 | 46 | 1008.9 |
| 20260508144228 | 64 | 167 | 2.6 | 5.2 | 0.00 | 0.00 | 0.00 | 48 | 1008.9 |
| 20260508143727 | 63 | 185 | 2.6 | 5.2 | 0.00 | 0.00 | 0.00 | 51 | 1009.0 |
| 20260508143226 | 62 | 242 | 2.6 | 5.2 | 0.00 | 0.00 | 0.00 | 50 | 1009.2 |
| 20260508142727 | 62 | 208 | 2.6 | 5.2 | 0.00 | 0.00 | 0.00 | 51 | 1009.2 |
| 20260508142227 | 62 | 217 | 2.6 | 5.2 | 0.00 | 0.00 | 0.00 | 51 | 1009.2 |
| 20260508141726 | 61 | 212 | 1.7 | 2.6 | 0.00 | 0.00 | 0.00 | 53 | 1009.2 |
| 20260508141225 | 60 | 196 | 0.9 | 1.7 | 0.00 | 0.00 | 0.00 | 55 | 1009.2 |
| 20260508140724 | 60 | 265 | 0.9 | 2.6 | 0.00 | 0.00 | 0.00 | 56 | 1009.3 |
| 20260508140226 | 58 | 165 | 0.9 | 2.6 | 0.00 | 0.00 | 0.00 | 58 | 1009.2 |
| 20260508135724 | 57 | 238 | 0.9 | 1.7 | 0.00 | 0.00 | 0.00 | 61 | 1009.3 |
| 20260508135225 | 56 | 111 | 0.9 | 1.7 | 0.00 | 0.00 | 0.00 | 63 | 1009.3 |
| 20260508134223 | 54 | 137 | 0.0 | 1.7 | 0.00 | 0.00 | 0.00 | 67 | 1009.4 |
| 20260508133722 | 54 | 291 | 0.0 | 1.7 | 0.00 | 0.00 | 0.00 | 67 | 1009.3 |
| 20260508133222 | 53 | 137 | 0.9 | 1.7 | 0.00 | 0.00 | 0.00 | 69 | 1009.4 |
| 20260508132722 | 53 | 265 | 0.0 | 1.7 | 0.00 | 0.00 | 0.00 | 70 | 1009.4 |
| 20260508132217 | 53 | 291 | 0.9 | 1.7 | 0.00 | 0.00 | 0.00 | 69 | 1009.4 |
| 20260508131717 | 53 | 153 | 0.9 | 1.7 | 0.00 | 0.00 | 0.00 | 69 | 1009.2 |
| 20260508130716 | 52 | 119 | 0.9 | 1.7 | 0.00 | 0.00 | 0.00 | 69 | 1009.0 |
| 20260508130216 | 51 | 193 | 0.9 | 1.7 | 0.00 | 0.00 | 0.00 | 71 | 1009.0 |
| 20260508125216 | 51 | 178 | 0.9 | 1.7 | 0.00 | 0.00 | 0.00 | 72 | 1008.9 |
| 20260508124715 | 51 | 221 | 0.9 | 1.7 | 0.00 | 0.00 | 0.00 | 71 | 1008.8 |
| 20260508124209 | 51 | 9 | 0.9 | 1.7 | 0.00 | 0.00 | 0.00 | 72 | 1008.7 |
| 20260508123709 | 51 | 9 | 0.0 | 1.7 | 0.00 | 0.00 | 0.00 | 73 | 1008.8 |
| 20260508123209 | 51 | 232 | 0.0 | 1.7 | 0.00 | 0.00 | 0.00 | 74 | 1008.8 |
| 20260508122709 | 51 | 51 | 0.0 | 0.9 | 0.00 | 0.00 | 0.00 | 73 | 1008.7 |
| 20260508122210 | 51 | 162 | 0.0 | 1.7 | 0.00 | 0.00 | 0.00 | 72 | 1008.7 |
| 20260508121707 | 50 | 221 | 0.9 | 1.7 | 0.00 | 0.00 | 0.00 | 72 | 1008.8 |
| 20260508121207 | 50 | 111 | 0.9 | 1.7 | 0.00 | 0.00 | 0.00 | 71 | 1008.7 |
| 20260508120707 | 50 | 265 | 0.0 | 1.7 | 0.00 | 0.00 | 0.00 | 71 | 1008.7 |
| 20260508120206 | 49 | 51 | 0.9 | 1.7 | 0.00 | 0.00 | 0.00 | 72 | 1008.8 |
| 20260508114706 | 49 | 119 | 0.9 | 1.7 | 0.00 | 0.00 | 0.00 | 73 | 1009.0 |
| 20260508114206 | 49 | 57 | 0.9 | 3.5 | 0.00 | 0.00 | 0.00 | 73 | 1008.9 |
| 20260508113206 | 49 | 121 | 0.9 | 2.6 | 0.00 | 0.00 | 0.00 | 72 | 1008.8 |
| 20260508112704 | 49 | 141 | 0.9 | 1.7 | 0.00 | 0.00 | 0.00 | 72 | 1008.8 |
| 20260508112204 | 49 | 265 | 0.9 | 1.7 | 0.00 | 0.00 | 0.00 | 71 | 1008.8 |
| 20260508111703 | 49 | 309 | 0.0 | 1.7 | 0.00 | 0.00 | 0.00 | 71 | 1008.9 |
| 20260508110702 | 49 | 178 | 0.0 | 2.6 | 0.00 | 0.00 | 0.00 | 69 | 1009.0 |
| 20260508110157 | 49 | 334 | 0.9 | 1.7 | 0.00 | 0.00 | 0.00 | 69 | 1009.0 |
| 20260508105658 | 49 | 9 | 0.9 | 0.9 | 0.00 | 0.00 | 0.00 | 68 | 1009.0 |
| 20260508105157 | 49 | 51 | 0.0 | 0.9 | 0.00 | 0.00 | 0.00 | 67 | 1008.9 |
| 20260508104657 | 49 | 51 | 0.0 | 1.7 | 0.00 | 0.00 | 0.00 | 68 | 1008.9 |
| 20260508103150 | 49 | 292 | 0.9 | 1.7 | 0.00 | 0.00 | 0.00 | 65 | 1009.0 |
| 20260508102650 | 49 | 178 | 0.0 | 1.7 | 0.00 | 0.00 | 0.00 | 67 | 1009.1 |
| 20260508102150 | 49 | 26 | 0.9 | 2.6 | 0.00 | 0.00 | 0.00 | 68 | 1009.0 |
| 20260508101649 | 49 | 17 | 0.0 | 2.6 | 0.00 | 0.00 | 0.00 | 69 | 1009.0 |
| 20260508101149 | 49 | 9 | 1.7 | 2.6 | 0.00 | 0.00 | 0.00 | 70 | 1009.2 |
| 20260508100649 | 49 | 110 | 1.7 | 2.6 | 0.00 | 0.00 | 0.00 | 69 | 1009.0 |
| 20260508100148 | 49 | 119 | 0.9 | 1.7 | 0.00 | 0.00 | 0.00 | 69 | 1009.1 |
| 20260508095649 | 49 | 178 | 0.0 | 1.7 | 0.00 | 0.00 | 0.00 | 67 | 1009.3 |
| 20260508095150 | 49 | 196 | 0.9 | 1.7 | 0.00 | 0.00 | 0.00 | 65 | 1009.4 |
| 20260508094648 | 49 | 217 | 0.0 | 2.6 | 0.00 | 0.00 | 0.00 | 63 | 1009.5 |
| 20260508094147 | 49 | 83 | 0.9 | 2.6 | 0.00 | 0.00 | 0.00 | 64 | 1009.5 |
| 20260508093647 | 50 | 22 | 0.9 | 2.6 | 0.00 | 0.00 | 0.00 | 66 | 1009.6 |
| 20260508093147 | 50 | 221 | 0.9 | 2.6 | 0.00 | 0.00 | 0.00 | 65 | 1009.6 |
| 20260508092647 | 50 | 17 | 1.7 | 2.6 | 0.00 | 0.00 | 0.00 | 66 | 1009.3 |
| 20260508091646 | 51 | 93 | 0.9 | 3.5 | 0.00 | 0.00 | 0.00 | 65 | 1009.2 |
| 20260508090646 | 51 | 28 | 1.7 | 2.6 | 0.00 | 0.00 | 0.00 | 63 | 1009.6 |
| 20260508090146 | 52 | 9 | 0.9 | 2.6 | 0.00 | 0.00 | 0.00 | 64 | 1009.7 |
| 20260508085646 | 52 | 153 | 0.9 | 2.6 | 0.00 | 0.00 | 0.00 | 62 | 1009.7 |
| 20260508085140 | 52 | 9 | 0.9 | 2.6 | 0.00 | 0.00 | 0.00 | 63 | 1009.7 |
| 20260508084639 | 52 | 221 | 0.9 | 4.3 | 0.00 | 0.00 | 0.00 | 60 | 1009.7 |
| 20260508084138 | 51 | 24 | 0.9 | 4.3 | 0.00 | 0.00 | 0.00 | 65 | 1009.7 |
| 20260508083638 | 52 | 216 | 1.7 | 4.3 | 0.00 | 0.00 | 0.00 | 64 | 1009.8 |
| 20260508082637 | 52 | 230 | 2.6 | 4.3 | 0.00 | 0.00 | 0.00 | 65 | 1009.6 |
| 20260508081137 | 52 | 15 | 0.9 | 1.7 | 0.00 | 0.00 | 0.00 | 66 | 1009.3 |
| 20260508080637 | 52 | 126 | 1.7 | 1.7 | 0.00 | 0.00 | 0.00 | 65 | 1009.6 |
| 20260508080138 | 51 | 247 | 0.0 | 1.7 | 0.00 | 0.00 | 0.00 | 64 | 1009.6 |
| 20260508075630 | 51 | 64 | 0.9 | 2.6 | 0.00 | 0.00 | 0.00 | 66 | 1009.7 |
| 20260508075131 | 50 | 31 | 0.9 | 3.5 | 0.00 | 0.00 | 0.00 | 68 | 1009.9 |
| 20260508074631 | 50 | 334 | 1.7 | 3.5 | 0.00 | 0.00 | 0.00 | 69 | 1009.9 |
| 20260508073629 | 51 | 255 | 1.7 | 2.6 | 0.00 | 0.00 | 0.00 | 70 | 1009.7 |
| 20260508072629 | 51 | 186 | 1.7 | 3.5 | 0.00 | 0.00 | 0.00 | 70 | 1009.2 |
| 20260508072129 | 51 | 209 | 0.9 | 3.5 | 0.00 | 0.00 | 0.00 | 69 | 1009.3 |
| 20260508071628 | 51 | 209 | 1.7 | 3.5 | 0.00 | 0.00 | 0.00 | 66 | 1009.4 |
| 20260508071128 | 50 | 26 | 0.9 | 1.7 | 0.00 | 0.00 | 0.00 | 67 | 1009.4 |
| 20260508070629 | 50 | 9 | 0.9 | 1.7 | 0.00 | 0.00 | 0.00 | 69 | 1009.5 |
| 20260508070124 | 50 | 9 | 0.9 | 1.7 | 0.00 | 0.00 | 0.00 | 71 | 1009.6 |
| 20260508065623 | 49 | 221 | 0.0 | 1.7 | 0.00 | 0.00 | 0.00 | 72 | 1009.6 |
| 20260508065123 | 49 | 137 | 0.9 | 1.7 | 0.00 | 0.00 | 0.00 | 71 | 1009.7 |
| 20260508064622 | 49 | 319 | 0.0 | 1.7 | 0.00 | 0.00 | 0.00 | 72 | 1009.8 |
| 20260508064122 | 49 | 34 | 0.9 | 1.7 | 0.00 | 0.00 | 0.00 | 73 | 1009.8 |
| 20260508063622 | 48 | 111 | 0.9 | 1.7 | 0.00 | 0.00 | 0.00 | 74 | 1009.8 |
| 20260508063121 | 48 | 93 | 0.0 | 1.7 | 0.00 | 0.00 | 0.00 | 73 | 1009.9 |
| 20260508062621 | 48 | 334 | 0.9 | 1.7 | 0.00 | 0.00 | 0.00 | 73 | 1009.9 |
| 20260508061620 | 47 | 178 | 0.0 | 2.6 | 0.00 | 0.00 | 0.00 | 74 | 1009.8 |
| 20260508061120 | 47 | 334 | 0.9 | 2.6 | 0.00 | 0.00 | 0.00 | 74 | 1009.7 |
| 20260508060620 | 47 | 336 | 0.9 | 1.7 | 0.00 | 0.00 | 0.00 | 74 | 1009.4 |
| 20260508060119 | 47 | 205 | 0.9 | 1.7 | 0.00 | 0.00 | 0.00 | 74 | 1009.5 |
| 20260508055118 | 47 | 334 | 0.0 | 0.9 | 0.00 | 0.00 | 0.00 | 75 | 1009.3 |
| 20260508054620 | 47 | 238 | 0.0 | 1.7 | 0.00 | 0.00 | 0.00 | 76 | 1009.5 |
| 20260508054113 | 47 | 265 | 0.9 | 1.7 | 0.00 | 0.00 | 0.00 | 76 | 1009.6 |
| 20260508053612 | 47 | 212 | 0.0 | 1.7 | 0.00 | 0.00 | 0.00 | 76 | 1009.5 |
| 20260508052602 | 47 | 321 | 0.9 | 2.6 | 0.00 | 0.00 | 0.00 | 76 | 1009.5 |
| 20260508052102 | 47 | 22 | 0.9 | 1.7 | 0.00 | 0.00 | 0.00 | 75 | 1009.5 |
| 20260508051602 | 47 | 9 | 0.9 | 1.7 | 0.00 | 0.00 | 0.00 | 75 | 1009.5 |
| 20260508051101 | 47 | 330 | 0.9 | 1.7 | 0.00 | 0.00 | 0.00 | 75 | 1009.6 |
| 20260508045601 | 47 | 221 | 0.9 | 1.7 | 0.00 | 0.00 | 0.00 | 73 | 1009.6 |
| 20260508045101 | 47 | 115 | 0.9 | 1.7 | 0.00 | 0.00 | 0.00 | 72 | 1009.7 |
| 20260508044601 | 47 | 282 | 0.0 | 0.9 | 0.00 | 0.00 | 0.00 | 70 | 1009.7 |
| 20260508044100 | 48 | 51 | 0.0 | 0.9 | 0.00 | 0.00 | 0.00 | 70 | 1009.8 |
| 20260508043050 | 48 | 291 | 0.9 | 1.7 | 0.00 | 0.00 | 0.00 | 68 | 1009.7 |
| 20260508042553 | 48 | 205 | 0.0 | 1.7 | 0.00 | 0.00 | 0.00 | 67 | 1009.7 |
| 20260508042050 | 49 | 325 | 0.9 | 1.7 | 0.00 | 0.00 | 0.00 | 66 | 1009.6 |
| 20260508041550 | 49 | 309 | 0.9 | 1.7 | 0.00 | 0.00 | 0.00 | 65 | 1009.8 |
| 20260508041049 | 49 | 153 | 0.9 | 1.7 | 0.00 | 0.00 | 0.00 | 64 | 1009.7 |
| 20260508040550 | 49 | 119 | 0.9 | 1.7 | 0.00 | 0.00 | 0.00 | 65 | 1009.8 |
| 20260508040049 | 49 | 9 | 0.9 | 1.7 | 0.00 | 0.00 | 0.00 | 64 | 1009.8 |
| 20260508035549 | 50 | 279 | 0.9 | 1.7 | 0.00 | 0.00 | 0.00 | 64 | 1009.8 |
| 20260508035049 | 50 | 309 | 0.9 | 1.7 | 0.00 | 0.00 | 0.00 | 63 | 1009.7 |
| 20260508034548 | 50 | 9 | 0.0 | 1.7 | 0.00 | 0.00 | 0.00 | 62 | 1009.5 |
| 20260508034049 | 51 | 51 | 0.0 | 1.7 | 0.00 | 0.00 | 0.00 | 62 | 1009.6 |
| 20260508033548 | 51 | 108 | 1.7 | 1.7 | 0.00 | 0.00 | 0.00 | 62 | 1009.6 |
| 20260508032547 | 51 | 149 | 0.9 | 1.7 | 0.00 | 0.00 | 0.00 | 59 | 1009.6 |
| 20260508032048 | 51 | 158 | 0.9 | 1.7 | 0.00 | 0.00 | 0.00 | 58 | 1009.6 |
| 20260508031546 | 52 | 9 | 0.0 | 0.9 | 0.00 | 0.00 | 0.00 | 57 | 1009.6 |
| 20260508031041 | 52 | 325 | 0.0 | 0.9 | 0.00 | 0.00 | 0.00 | 55 | 1009.7 |
| 20260508030537 | 53 | 309 | 0.0 | 0.9 | 0.00 | 0.00 | 0.00 | 53 | 1009.6 |
| 20260508030036 | 53 | 309 | 0.0 | 0.9 | 0.00 | 0.00 | 0.00 | 51 | 1009.6 |
| 20260508025035 | 55 | 291 | 0.0 | 0.9 | 0.00 | 0.00 | 0.00 | 49 | 1009.5 |
| 20260508024535 | 55 | 309 | 0.0 | 0.9 | 0.00 | 0.00 | 0.00 | 47 | 1009.4 |
| 20260508024035 | 56 | 9 | 0.0 | 0.9 | 0.00 | 0.00 | 0.00 | 45 | 1009.5 |
| 20260508023530 | 57 | 238 | 0.0 | 0.9 | 0.00 | 0.00 | 0.00 | 44 | 1009.3 |
| 20260508022529 | 58 | 221 | 0.0 | 1.7 | 0.00 | 0.00 | 0.00 | 42 | 1009.3 |
| 20260508022029 | 59 | 119 | 0.0 | 1.7 | 0.00 | 0.00 | 0.00 | 41 | 1009.2 |
| 20260508021029 | 61 | 51 | 0.0 | 1.7 | 0.00 | 0.00 | 0.00 | 38 | 1009.1 |
| 20260508020527 | 62 | 221 | 0.9 | 2.6 | 0.00 | 0.00 | 0.00 | 36 | 1008.9 |
| 20260508020022 | 63 | 265 | 0.9 | 2.6 | 0.00 | 0.00 | 0.00 | 33 | 1008.9 |
| 20260508015522 | 63 | 47 | 0.9 | 2.6 | 0.00 | 0.00 | 0.00 | 31 | 1008.7 |
| 20260508015022 | 64 | 44 | 1.7 | 3.5 | 0.00 | 0.00 | 0.00 | 31 | 1008.8 |
| 20260508014522 | 63 | 22 | 1.7 | 3.5 | 0.00 | 0.00 | 0.00 | 30 | 1008.8 |
| 20260508013521 | 62 | 9 | 1.7 | 3.5 | 0.00 | 0.00 | 0.00 | 31 | 1008.8 |
| 20260508012521 | 63 | 34 | 1.7 | 3.5 | 0.00 | 0.00 | 0.00 | 33 | 1008.8 |
| 20260508011520 | 63 | 338 | 2.6 | 3.5 | 0.00 | 0.00 | 0.00 | 34 | 1008.6 |
| 20260508010519 | 64 | 342 | 2.6 | 7.0 | 0.00 | 0.00 | 0.00 | 33 | 1008.4 |
| 20260508010020 | 65 | 23 | 2.6 | 7.0 | 0.00 | 0.00 | 0.00 | 33 | 1008.3 |
| 20260508005520 | 65 | 26 | 3.5 | 7.8 | 0.00 | 0.00 | 0.00 | 33 | 1008.3 |
| 20260508005019 | 65 | 341 | 3.5 | 7.8 | 0.00 | 0.00 | 0.00 | 33 | 1008.2 |